LPA3638 UGTB-UWWW

Flight info

Callsign LPA3638
Flight time N/A
Altitude 40000
Route LAPTO N82 NIRGA/K0913F410 R807 UROBO P135 TUNIG TUNIG2F
Aircraft B789/H-SDE1E2E3FGHIJ2J3J4J5M1RWXY/LB1D1

Departure

Time 2026-04-24 19:20
Airport Tbilisi International Airport (UGTB)

Arrival

Time N/A
Airport Kurumoch International Airport (UWWW)
Time Latitude Longitude Altitude Speed Heading
2026-04-24 18:57 41.66886 44.96323 1567 ft 0 kts 43°
2026-04-24 19:06 41.66886 44.96322 1567 ft 0 kts 43°
2026-04-24 19:06 41.66878 44.96312 1566 ft 2 kts 46°
2026-04-24 19:06 41.66869 44.96296 1565 ft 2 kts 63°
2026-04-24 19:07 41.66863 44.96277 1564 ft 2 kts 76°
2026-04-24 19:07 41.66861 44.96257 1563 ft 2 kts 89°
2026-04-24 19:07 41.66861 44.96244 1562 ft 2 kts 98°
2026-04-24 19:07 41.66866 44.96218 1561 ft 2 kts 115°
2026-04-24 19:08 41.66874 44.96201 1561 ft 2 kts 128°
2026-04-24 19:08 41.66878 44.96192 1561 ft 1 kts 135°
2026-04-24 19:08 41.66881 44.96189 1561 ft 0 kts 133°
2026-04-24 19:12 41.66869 44.96206 1561 ft 6 kts 131°
2026-04-24 19:13 41.66837 44.96254 1561 ft 12 kts 132°
2026-04-24 19:13 41.66757 44.96368 1560 ft 12 kts 139°
2026-04-24 19:13 41.66673 44.96415 1556 ft 14 kts 178°
2026-04-24 19:13 41.66546 44.96385 1547 ft 23 kts 194°
2026-04-24 19:14 41.66442 44.96350 1541 ft 12 kts 194°
2026-04-24 19:14 41.66356 44.96321 1535 ft 19 kts 194°
2026-04-24 19:14 41.66267 44.96299 1530 ft 13 kts 182°
2026-04-24 19:14 41.66203 44.96309 1526 ft 0 kts 165°
2026-04-24 19:15 41.66195 44.96312 1526 ft 2 kts 163°
2026-04-24 19:15 41.66160 44.96331 1524 ft 10 kts 149°
2026-04-24 19:15 41.66072 44.96431 1519 ft 20 kts 135°
2026-04-24 19:15 41.65986 44.96543 1512 ft 13 kts 136°
2026-04-24 19:16 41.65900 44.96594 1503 ft 0 kts 192°
2026-04-24 19:17 41.65888 44.96589 1502 ft 6 kts 202°
2026-04-24 19:17 41.65844 44.96530 1501 ft 9 kts 248°
2026-04-24 19:17 41.65851 44.96469 1503 ft 5 kts 298°
2026-04-24 19:17 41.65869 44.96437 1505 ft 0 kts 313°
2026-04-24 19:19 41.65871 44.96435 1505 ft 3 kts 313°
2026-04-24 19:19 41.65959 44.96318 1512 ft 42 kts 316°
2026-04-24 19:20 41.66327 44.95849 1525 ft 119 kts 316°
2026-04-24 19:20 41.67142 44.94784 1612 ft 192 kts 314°
2026-04-24 19:20 41.68127 44.93450 2324 ft 217 kts 314°
2026-04-24 19:20 41.69234 44.91951 3059 ft 252 kts 315°
2026-04-24 19:21 41.70492 44.90256 3880 ft 286 kts 315°
2026-04-24 19:21 41.71956 44.88301 4706 ft 313 kts 315°
2026-04-24 19:21 41.73362 44.86440 5454 ft 271 kts 315°
2026-04-24 19:21 41.74614 44.84833 6058 ft 230 kts 315°
2026-04-24 19:22 41.75368 44.83939 6324 ft 207 kts 323°
2026-04-24 19:22 41.76952 44.82942 6599 ft 176 kts 330°
2026-04-24 19:22 41.78058 44.82137 6780 ft 200 kts 328°
2026-04-24 19:22 41.79409 44.81177 7205 ft 232 kts 328°
2026-04-24 19:23 41.80835 44.80138 7748 ft 252 kts 327°
2026-04-24 19:23 41.82386 44.79012 8366 ft 259 kts 327°
2026-04-24 19:23 41.83992 44.77837 9006 ft 263 kts 326°
2026-04-24 19:23 41.85604 44.76658 9649 ft 267 kts 326°
2026-04-24 19:24 41.87233 44.75464 10310 ft 268 kts 325°
2026-04-24 19:24 41.88862 44.74260 10955 ft 274 kts 325°
2026-04-24 19:24 41.90549 44.73019 11640 ft 275 kts 325°
2026-04-24 19:24 41.92239 44.71773 12317 ft 280 kts 324°
2026-04-24 19:25 41.93958 44.70510 12984 ft 284 kts 324°
2026-04-24 19:25 41.95723 44.69207 13667 ft 289 kts 323°
2026-04-24 19:25 41.97512 44.67885 14389 ft 292 kts 323°
2026-04-24 19:25 41.99305 44.66559 15093 ft 297 kts 323°
2026-04-24 19:26 42.01156 44.65190 15809 ft 306 kts 323°
2026-04-24 19:26 42.03012 44.63826 16525 ft 309 kts 323°
2026-04-24 19:26 42.04927 44.62401 17270 ft 317 kts 322°
2026-04-24 19:26 42.06884 44.60960 18017 ft 323 kts 322°
2026-04-24 19:27 42.08837 44.59507 18774 ft 329 kts 322°
2026-04-24 19:27 42.10827 44.58041 19549 ft 327 kts 322°
2026-04-24 19:27 42.12787 44.56587 20296 ft 331 kts 322°
2026-04-24 19:27 42.14624 44.55219 21008 ft 336 kts 321°
2026-04-24 19:28 42.16696 44.53679 21737 ft 347 kts 321°
2026-04-24 19:28 42.18832 44.52078 22172 ft 362 kts 321°
2026-04-24 19:28 42.21103 44.50384 21955 ft 384 kts 322°
2026-04-24 19:28 42.23537 44.48553 21985 ft 414 kts 322°
2026-04-24 19:29 42.28948 44.44514 21925 ft 477 kts 324°
2026-04-24 19:29 42.31955 44.42284 21890 ft 494 kts 324°
2026-04-24 19:29 42.34997 44.40019 21927 ft 497 kts 324°
2026-04-24 19:30 42.38001 44.37784 21914 ft 495 kts 324°
2026-04-24 19:30 42.41036 44.35506 21904 ft 493 kts 324°
2026-04-24 19:30 42.44044 44.33260 21931 ft 496 kts 323°
2026-04-24 19:30 42.47051 44.30995 21918 ft 494 kts 323°
2026-04-24 19:31 42.50048 44.28749 21915 ft 492 kts 323°
2026-04-24 19:31 42.53016 44.26508 21945 ft 494 kts 323°
2026-04-24 19:31 42.56076 44.24200 22258 ft 503 kts 323°
2026-04-24 19:31 42.59123 44.21909 23490 ft 500 kts 323°
2026-04-24 19:32 42.62149 44.19647 24883 ft 497 kts 324°
2026-04-24 19:32 42.65385 44.18059 26226 ft 509 kts 340°
2026-04-24 19:32 42.68861 44.17167 27649 ft 502 kts 339°
2026-04-24 19:32 42.72191 44.16104 29117 ft 495 kts 339°
2026-04-24 19:33 42.75531 44.15124 30494 ft 490 kts 339°
2026-04-24 19:33 42.78831 44.14103 31569 ft 487 kts 339°
2026-04-24 19:33 42.82148 44.13103 32461 ft 486 kts 339°
2026-04-24 19:33 42.85425 44.12100 33292 ft 484 kts 338°
2026-04-24 19:34 42.88698 44.11106 34053 ft 482 kts 338°
2026-04-24 19:34 42.91945 44.10104 34721 ft 482 kts 338°
2026-04-24 19:34 42.95246 44.09089 35390 ft 482 kts 339°
2026-04-24 19:34 42.98504 44.08089 36066 ft 480 kts 339°
2026-04-24 19:35 43.01726 44.07103 36763 ft 477 kts 339°
2026-04-24 19:35 43.04989 44.06105 37261 ft 478 kts 339°
2026-04-24 19:35 43.08173 44.05123 37762 ft 478 kts 339°
2026-04-24 19:35 43.11394 44.04134 38244 ft 476 kts 340°
2026-04-24 19:36 43.14649 44.03131 38622 ft 478 kts 340°
2026-04-24 19:36 43.17886 44.02128 39056 ft 478 kts 340°
2026-04-24 19:36 43.21162 44.01105 39292 ft 482 kts 340°
2026-04-24 19:36 43.24449 44.00087 39624 ft 483 kts 340°
2026-04-24 19:37 43.27631 43.99098 39933 ft 483 kts 340°
2026-04-24 19:37 43.34139 43.97072 39963 ft 478 kts 340°
2026-04-24 19:38 43.40617 43.95043 39979 ft 477 kts 340°
2026-04-24 19:38 43.47104 43.93016 39960 ft 480 kts 340°
2026-04-24 19:39 43.53578 43.90992 39955 ft 479 kts 340°
2026-04-24 19:39 43.60099 43.88942 39953 ft 479 kts 340°
2026-04-24 19:40 43.66563 43.86912 39945 ft 481 kts 341°
2026-04-24 19:40 43.73030 43.84875 39944 ft 481 kts 341°
2026-04-24 19:41 43.79464 43.82845 39945 ft 479 kts 341°
2026-04-24 19:41 43.86006 43.80774 39957 ft 482 kts 341°
2026-04-24 19:42 43.92519 43.78722 39932 ft 479 kts 341°
2026-04-24 19:42 43.99069 43.76652 39936 ft 480 kts 341°
2026-04-24 19:43 44.05636 43.74571 39938 ft 482 kts 341°
2026-04-24 19:43 44.12186 43.72489 39925 ft 492 kts 341°
2026-04-24 19:44 44.18988 43.70326 39925 ft 504 kts 341°
2026-04-24 19:44 44.25847 43.68145 39917 ft 511 kts 341°
2026-04-24 19:45 44.32829 43.65915 39916 ft 514 kts 341°
2026-04-24 19:45 44.39820 43.63680 39920 ft 514 kts 341°
2026-04-24 19:46 44.46842 43.61430 39913 ft 515 kts 341°
2026-04-24 19:46 44.53873 43.59176 39912 ft 516 kts 341°
2026-04-24 19:47 44.60854 43.56934 39917 ft 515 kts 341°
2026-04-24 19:47 44.67900 43.54666 39907 ft 516 kts 341°
2026-04-24 19:48 44.74942 43.52464 39888 ft 519 kts 346°
2026-04-24 19:48 44.78578 43.52274 39888 ft 526 kts 357°
2026-04-24 19:48 44.85884 43.52337 39894 ft 527 kts 355°
2026-04-24 19:49 45.00565 43.52361 39899 ft 527 kts 355°
2026-04-24 19:50 45.15286 43.52378 39884 ft 525 kts 355°
2026-04-24 19:51 45.26302 43.52391 39885 ft 526 kts 355°
2026-04-24 19:52 45.37289 43.52403 39892 ft 527 kts 355°
2026-04-24 19:52 45.44657 43.52412 39898 ft 526 kts 355°
2026-04-24 19:53 45.52011 43.53534 39868 ft 534 kts
2026-04-24 19:54 45.62962 43.56612 39907 ft 534 kts
2026-04-24 19:54 45.70284 43.58670 39937 ft 535 kts
2026-04-24 19:55 45.76404 43.60397 39996 ft 534 kts
2026-04-24 19:55 45.84907 43.62795 40062 ft 534 kts
2026-04-24 19:56 45.92229 43.64867 40114 ft 534 kts
2026-04-24 19:56 45.99487 43.66932 40399 ft 528 kts
2026-04-24 19:56 46.03071 43.68069 40644 ft 526 kts
2026-04-24 19:57 46.06620 43.69268 40870 ft 523 kts
2026-04-24 19:57 46.13806 43.71664 40860 ft 529 kts
2026-04-24 19:58 46.21009 43.74070 40867 ft 531 kts
2026-04-24 19:58 46.28250 43.76503 40862 ft 533 kts
2026-04-24 19:59 46.35468 43.78934 40863 ft 533 kts
2026-04-24 19:59 46.42775 43.81401 40857 ft 533 kts
2026-04-24 20:00 46.50022 43.83853 40850 ft 533 kts
2026-04-24 20:00 46.57251 43.86311 40845 ft 533 kts
2026-04-24 20:01 46.64491 43.88776 40847 ft 534 kts
2026-04-24 20:01 46.71746 43.91254 40838 ft 534 kts
2026-04-24 20:02 46.77803 43.93331 40837 ft 534 kts
2026-04-24 20:02 46.86274 43.96237 40836 ft 534 kts
2026-04-24 20:03 46.93488 43.98724 40828 ft 534 kts
2026-04-24 20:03 47.00754 44.01241 40820 ft 534 kts
2026-04-24 20:04 47.07986 44.03768 40814 ft 534 kts
2026-04-24 20:04 47.15299 44.06334 40811 ft 534 kts
2026-04-24 20:05 47.22446 44.08844 40805 ft 534 kts
2026-04-24 20:05 47.29713 44.11404 40798 ft 534 kts
2026-04-24 20:06 47.36869 44.13937 40798 ft 526 kts
2026-04-24 20:06 47.40378 44.15181 40813 ft 511 kts
2026-04-24 20:06 47.43802 44.16399 40807 ft 499 kts
2026-04-24 20:07 47.49424 44.18391 40801 ft 498 kts
2026-04-24 20:07 47.57438 44.21243 40811 ft 509 kts
2026-04-24 20:08 47.64302 44.23694 40801 ft 507 kts
2026-04-24 20:08 47.71202 44.26167 40797 ft 506 kts
2026-04-24 20:09 47.78059 44.28633 40795 ft 506 kts
2026-04-24 20:09 47.84937 44.31110 40790 ft 506 kts
2026-04-24 20:10 47.91821 44.33598 40786 ft 507 kts
2026-04-24 20:10 47.98604 44.36711 40796 ft 509 kts 14°
2026-04-24 20:11 48.05333 44.39954 40785 ft 509 kts 14°
2026-04-24 20:11 48.12074 44.43207 40777 ft 509 kts 14°
2026-04-24 20:12 48.18427 44.46288 40767 ft 506 kts 14°
2026-04-24 20:12 48.25028 44.49495 40755 ft 499 kts 14°
2026-04-24 20:13 48.31713 44.52747 40753 ft 505 kts 14°
2026-04-24 20:13 48.38382 44.56002 40743 ft 503 kts 14°
2026-04-24 20:14 48.45078 44.59280 40746 ft 503 kts 14°
2026-04-24 20:14 48.51702 44.62532 40739 ft 503 kts 14°
2026-04-24 20:15 48.58350 44.65806 40737 ft 503 kts 15°
2026-04-24 20:15 48.65019 44.69099 40730 ft 504 kts 15°
2026-04-24 20:16 48.71682 44.72411 40719 ft 503 kts 15°
2026-04-24 20:16 48.78366 44.75745 40719 ft 504 kts 15°
2026-04-24 20:17 48.85031 44.79014 40712 ft 502 kts 13°
2026-04-24 20:17 48.95158 44.83225 40717 ft 502 kts 12°
2026-04-24 20:18 49.01902 44.86064 40719 ft 502 kts 12°
2026-04-24 20:18 49.08625 44.88905 40726 ft 502 kts 13°
2026-04-24 20:19 49.15371 44.91762 40708 ft 502 kts 13°
2026-04-24 20:19 49.22123 44.94630 40699 ft 502 kts 13°
2026-04-24 20:20 49.28827 44.97491 40705 ft 502 kts 13°
2026-04-24 20:20 49.35600 45.00385 40691 ft 503 kts 13°
2026-04-24 20:21 49.42320 45.03263 40690 ft 502 kts 13°
2026-04-24 20:21 49.49088 45.06174 40687 ft 503 kts 13°
2026-04-24 20:22 49.55814 45.09070 40673 ft 503 kts 13°
2026-04-24 20:22 49.62560 45.11987 40665 ft 503 kts 13°
2026-04-24 20:23 49.69339 45.14931 40657 ft 503 kts 13°
2026-04-24 20:23 49.76051 45.17865 40691 ft 504 kts 13°
2026-04-24 20:24 49.82839 45.20840 40686 ft 503 kts 13°
2026-04-24 20:24 49.89559 45.23796 40685 ft 503 kts 13°
2026-04-24 20:25 49.96329 45.26781 40674 ft 503 kts 13°
2026-04-24 20:25 50.02940 45.29644 40676 ft 503 kts 10°
2026-04-24 20:26 50.09678 45.31875 40677 ft 503 kts
2026-04-24 20:26 50.16233 45.34099 40673 ft 502 kts
2026-04-24 20:27 50.23113 45.36443 40667 ft 502 kts
2026-04-24 20:27 50.29921 45.38773 40671 ft 502 kts
2026-04-24 20:28 50.36714 45.41101 40658 ft 502 kts
2026-04-24 20:28 50.43390 45.43398 40650 ft 502 kts
2026-04-24 20:29 50.50215 45.45753 40627 ft 501 kts
2026-04-24 20:29 50.57000 45.48101 40605 ft 502 kts 10°
2026-04-24 20:30 50.63817 45.50468 40613 ft 501 kts 10°
2026-04-24 20:30 50.70599 45.52829 40606 ft 502 kts 10°
2026-04-24 20:31 50.77468 45.55233 40606 ft 501 kts 11°
2026-04-24 20:31 50.84052 45.59044 40603 ft 504 kts 19°
2026-04-24 20:32 50.90577 45.63088 40602 ft 503 kts 19°
2026-04-24 20:32 50.97083 45.67141 40594 ft 504 kts 20°
2026-04-24 20:33 51.03626 45.71233 40588 ft 504 kts 20°
2026-04-24 20:33 51.10141 45.75316 40579 ft 505 kts 20°
2026-04-24 20:34 51.16717 45.79452 40580 ft 504 kts 20°
2026-04-24 20:34 51.23235 45.83564 40579 ft 504 kts 20°
2026-04-24 20:35 51.29778 45.87704 40573 ft 504 kts 20°
2026-04-24 20:35 51.36329 45.91861 40559 ft 504 kts 20°
2026-04-24 20:36 51.42868 45.96026 40553 ft 504 kts 20°
2026-04-24 20:36 51.49376 46.00182 40553 ft 504 kts 20°
2026-04-24 20:37 51.55866 46.04485 40522 ft 506 kts 27°
2026-04-24 20:37 51.58708 46.07812 40536 ft 506 kts 43°
2026-04-24 20:37 51.61342 46.11634 40581 ft 507 kts 40°
2026-04-24 20:38 51.66580 46.18896 40539 ft 507 kts 40°
2026-04-24 20:38 51.71913 46.26331 40527 ft 505 kts 40°
2026-04-24 20:39 51.77231 46.33772 40539 ft 506 kts 40°
2026-04-24 20:39 51.82407 46.41557 40503 ft 505 kts 51°
2026-04-24 20:40 51.86685 46.50546 40521 ft 508 kts 52°
2026-04-24 20:40 51.91019 46.59580 40533 ft 507 kts 52°
2026-04-24 20:41 51.95367 46.68666 40510 ft 507 kts 53°
2026-04-24 20:41 51.99696 46.77748 40515 ft 507 kts 53°
2026-04-24 20:42 52.03996 46.86796 40515 ft 506 kts 53°
2026-04-24 20:42 52.08304 46.95893 40514 ft 506 kts 53°
2026-04-24 20:43 52.12605 47.05007 40501 ft 506 kts 53°
2026-04-24 20:43 52.16931 47.14207 40507 ft 507 kts 53°
2026-04-24 20:44 52.21195 47.23321 40507 ft 507 kts 53°
2026-04-24 20:44 52.25473 47.32502 40502 ft 507 kts 53°
2026-04-24 20:45 52.29734 47.41679 40495 ft 508 kts 53°
2026-04-24 20:45 52.33968 47.50824 40256 ft 492 kts 53°
2026-04-24 20:46 52.36055 47.55342 39746 ft 488 kts 53°
2026-04-24 20:46 52.38105 47.59791 38952 ft 490 kts 53°
2026-04-24 20:46 52.40157 47.64249 38153 ft 491 kts 53°
2026-04-24 20:46 52.42194 47.68684 38012 ft 477 kts 53°
2026-04-24 20:47 52.46126 47.77263 37978 ft 470 kts 54°
2026-04-24 20:47 52.50108 47.85986 37938 ft 482 kts 54°
2026-04-24 20:48 52.52135 47.90435 37334 ft 504 kts 54°
2026-04-24 20:48 52.54281 47.95157 36380 ft 517 kts 54°
2026-04-24 20:48 52.56419 47.99861 35710 ft 515 kts 54°
2026-04-24 20:48 52.58554 48.04578 35554 ft 500 kts 54°
2026-04-24 20:49 52.60598 48.09098 35353 ft 487 kts 54°
2026-04-24 20:49 52.62602 48.13537 35118 ft 483 kts 54°
2026-04-24 20:49 52.64625 48.18031 34877 ft 486 kts 54°
2026-04-24 20:49 52.66607 48.22435 34604 ft 479 kts 54°
2026-04-24 20:50 52.68581 48.26829 34285 ft 471 kts 54°
2026-04-24 20:50 52.70540 48.31196 33964 ft 462 kts 54°
2026-04-24 20:50 52.72425 48.35410 33647 ft 454 kts 54°
2026-04-24 20:50 52.74296 48.39599 33328 ft 447 kts 54°
2026-04-24 20:51 52.76123 48.43692 33013 ft 445 kts 54°
2026-04-24 20:51 52.77976 48.47853 32719 ft 448 kts 54°
2026-04-24 20:51 52.79828 48.52026 32440 ft 450 kts 54°
2026-04-24 20:51 52.81686 48.56210 32154 ft 449 kts 54°
2026-04-24 20:52 52.83536 48.60387 31871 ft 446 kts 54°
2026-04-24 20:52 52.85350 48.64485 31589 ft 442 kts 54°
2026-04-24 20:52 52.87181 48.68629 31272 ft 440 kts 55°
2026-04-24 20:52 52.88804 48.72310 30916 ft 439 kts 55°
2026-04-24 20:53 52.90690 48.76595 30484 ft 437 kts 55°
2026-04-24 20:53 52.92493 48.80701 30074 ft 434 kts 55°
2026-04-24 20:53 52.94252 48.84709 29640 ft 431 kts 55°
2026-04-24 20:53 52.96017 48.88746 29045 ft 434 kts 55°
2026-04-24 20:54 52.97798 48.92820 28458 ft 436 kts 55°
2026-04-24 20:54 52.99574 48.96890 27819 ft 441 kts 55°
2026-04-24 20:54 53.01389 49.01060 27048 ft 448 kts 55°
2026-04-24 20:54 53.03228 49.05287 26311 ft 454 kts 54°
2026-04-24 20:55 53.05103 49.09604 25547 ft 458 kts 55°
2026-04-24 20:55 53.06946 49.13857 24767 ft 461 kts 55°
2026-04-24 20:55 53.08817 49.18247 23820 ft 462 kts 57°
2026-04-24 20:55 53.10132 49.23098 22789 ft 460 kts 77°
2026-04-24 20:56 53.10353 49.28362 21876 ft 452 kts 98°
2026-04-24 20:56 53.09652 49.32683 21092 ft 442 kts 116°
2026-04-24 20:56 53.07921 49.36865 20175 ft 430 kts 138°
2026-04-24 20:56 53.05532 49.39570 19271 ft 418 kts 159°
2026-04-24 20:57 53.02783 49.40605 18327 ft 406 kts 180°
2026-04-24 20:57 53.00035 49.39835 17367 ft 395 kts 202°
2026-04-24 20:57 52.97752 49.37397 16416 ft 388 kts 224°
2026-04-24 20:57 52.96098 49.33917 15697 ft 378 kts 234°
2026-04-24 20:58 52.94538 49.30484 15089 ft 360 kts 232°
2026-04-24 20:58 52.93061 49.27223 14539 ft 342 kts 232°
2026-04-24 20:58 52.91672 49.24170 14016 ft 326 kts 232°
2026-04-24 20:58 52.90314 49.21210 13486 ft 312 kts 232°
2026-04-24 20:59 52.89024 49.18411 12973 ft 301 kts 232°
2026-04-24 20:59 52.87776 49.15673 12473 ft 292 kts 234°
2026-04-24 20:59 52.87045 49.12563 11870 ft 289 kts 261°
2026-04-24 20:59 52.87400 49.09353 11350 ft 291 kts 291°
2026-04-24 21:00 52.88757 49.06848 10832 ft 297 kts 322°
2026-04-24 21:00 52.90726 49.05825 10314 ft 304 kts 354°
2026-04-24 21:00 52.92781 49.06584 9797 ft 306 kts 26°
2026-04-24 21:00 52.94523 49.08691 9394 ft 307 kts 37°
2026-04-24 21:01 52.96313 49.10754 8872 ft 314 kts 32°
2026-04-24 21:01 52.98138 49.12753 8286 ft 319 kts 32°
2026-04-24 21:01 53.00030 49.14767 7788 ft 319 kts 31°
2026-04-24 21:01 53.01876 49.16704 7662 ft 306 kts 31°
2026-04-24 21:02 53.03688 49.18588 7342 ft 302 kts 31°
2026-04-24 21:02 53.05454 49.20409 6952 ft 301 kts 31°
2026-04-24 21:02 53.07261 49.22272 6544 ft 300 kts 31°
2026-04-24 21:02 53.09023 49.24086 6348 ft 294 kts 31°
2026-04-24 21:03 53.10760 49.25872 6087 ft 293 kts 31°
2026-04-24 21:03 53.12516 49.27676 5945 ft 296 kts 31°
2026-04-24 21:03 53.14271 49.29481 5792 ft 299 kts 31°
2026-04-24 21:03 53.16066 49.31327 5653 ft 299 kts 31°
2026-04-24 21:04 53.17862 49.33181 5519 ft 299 kts 31°
2026-04-24 21:04 53.19633 49.35008 5385 ft 298 kts 31°
2026-04-24 21:04 53.21408 49.36840 5251 ft 298 kts 31°
2026-04-24 21:04 53.23174 49.38666 5129 ft 298 kts 31°
2026-04-24 21:05 53.24947 49.40497 4992 ft 298 kts 31°
2026-04-24 21:05 53.26716 49.42324 4859 ft 297 kts 31°
2026-04-24 21:05 53.28498 49.44176 4727 ft 297 kts 32°
2026-04-24 21:05 53.30279 49.46026 4595 ft 297 kts 32°
2026-04-24 21:06 53.32045 49.47860 4464 ft 296 kts 31°
2026-04-24 21:06 53.33817 49.49705 4333 ft 296 kts 32°
2026-04-24 21:06 53.35570 49.51526 4203 ft 296 kts 32°
2026-04-24 21:06 53.37313 49.53343 4074 ft 295 kts 32°
2026-04-24 21:07 53.39063 49.55165 3944 ft 295 kts 32°
2026-04-24 21:07 53.40795 49.56973 3816 ft 294 kts 32°
2026-04-24 21:07 53.42481 49.58991 3700 ft 293 kts 39°
2026-04-24 21:07 53.44104 49.61024 3566 ft 290 kts 37°
2026-04-24 21:08 53.45714 49.63012 3415 ft 277 kts 38°
2026-04-24 21:08 53.47228 49.64887 3226 ft 267 kts 38°
2026-04-24 21:08 53.48696 49.66705 3059 ft 256 kts 39°
2026-04-24 21:08 53.50138 49.68495 2691 ft 254 kts 39°
2026-04-24 21:09 53.51578 49.70278 2325 ft 253 kts 39°
2026-04-24 21:09 53.53006 49.72057 1956 ft 251 kts 40°
2026-04-24 21:09 53.54379 49.73755 1815 ft 239 kts 40°
2026-04-24 21:09 53.55670 49.75356 1818 ft 220 kts 41°
2026-04-24 21:10 53.56890 49.76883 1843 ft 221 kts 41°
2026-04-24 21:10 53.58172 49.78489 1881 ft 234 kts 40°
2026-04-24 21:10 53.59465 49.80109 1844 ft 231 kts 41°
2026-04-24 21:10 53.60776 49.81739 1857 ft 228 kts 40°
2026-04-24 21:11 53.62096 49.83387 1881 ft 235 kts 40°
2026-04-24 21:11 53.63406 49.85019 1867 ft 233 kts 41°
2026-04-24 21:11 53.64703 49.86647 1871 ft 232 kts 41°
2026-04-24 21:11 53.66031 49.88307 1886 ft 232 kts 40°
2026-04-24 21:12 53.67104 49.90321 1839 ft 226 kts 72°
2026-04-24 21:12 53.67295 49.91965 1832 ft 204 kts 102°
2026-04-24 21:12 53.66656 49.94692 1880 ft 185 kts 124°
2026-04-24 21:12 53.66169 49.96705 1858 ft 182 kts 123°
2026-04-24 21:13 53.65675 49.98679 1866 ft 183 kts 123°
2026-04-24 21:13 53.65173 50.00679 1895 ft 187 kts 121°
2026-04-24 21:13 53.64676 50.02701 1866 ft 182 kts 121°
2026-04-24 21:13 53.64217 50.04629 1866 ft 172 kts 123°
2026-04-24 21:14 53.63750 50.06494 1856 ft 171 kts 123°
2026-04-24 21:14 53.63282 50.08369 1878 ft 174 kts 122°
2026-04-24 21:14 53.62712 50.10117 1827 ft 162 kts 142°
2026-04-24 21:14 53.61764 50.10890 1870 ft 149 kts 171°
2026-04-24 21:15 53.60750 50.11439 1876 ft 160 kts 163°
2026-04-24 21:15 53.59737 50.12111 1894 ft 145 kts 166°
2026-04-24 21:15 53.58848 50.12656 1857 ft 127 kts 166°
2026-04-24 21:15 53.58064 50.13160 1764 ft 112 kts 166°
2026-04-24 21:16 53.57373 50.13636 1549 ft 103 kts 165°
2026-04-24 21:16 53.56726 50.14124 1258 ft 102 kts 161°
2026-04-24 21:16 53.56021 50.14605 1127 ft 113 kts 168°
2026-04-24 21:16 53.55225 50.14928 872 ft 118 kts 173°
2026-04-24 21:17 53.54431 50.15272 767 ft 119 kts 167°
2026-04-24 21:17 53.53666 50.15811 669 ft 126 kts 160°
2026-04-24 21:17 53.52872 50.16295 640 ft 116 kts 168°
2026-04-24 21:17 53.52354 50.16540 571 ft 122 kts 168°
2026-04-24 21:18 53.51245 50.17225 444 ft 117 kts 165°
2026-04-24 21:18 53.50473 50.17627 711 ft 122 kts 168°
2026-04-24 21:18 53.49600 50.18053 1501 ft 145 kts 169°
2026-04-24 21:18 53.48529 50.18509 2335 ft 173 kts 171°
2026-04-24 21:19 53.47701 50.18823 509 ft 308 kts 170°